Regional Weather Roundup
Issued by NWS Goodland, KS

Home | Current Version | Previous Version | Text Only | Print | Product List | Glossary Off
Versions: 1 2 3 4 5 6 7 8 9 10 11 12 13 14 15 16 17 18 19 20 21 22 23 24 25 26 27 28 29 30 31 32 33 34 35 36 37 38 39 40 41 42 43 44 45 46 47 48 49 50

000
ASUS43 KGLD 292308
RWRGLD

GOODLAND FORECAST AREA HOURLY WEATHER ROUNDUP
NATIONAL WEATHER SERVICE GOODLAND KS
500 PM MDT TUE JUL 29 2014

...OFFICIAL OBSERVATIONS...

CITY           SKY/WX    TMP DP  RH WIND       PRES   REMARKS
GOODLAND KS    CLOUDY    82  59  45 SE14      30.09F
HILL CITY KS   MOSUNNY   87  57  35 E12       30.07F
IMPERIAL NEB   MOSUNNY   84  59  42 E18       30.10F
MCCOOK NEB     MOSUNNY   85  58  39 E17       30.09F
AKRON CO       CLOUDY    76  56  49 E17G30    30.14R THUNDER
BURLINGTON CO  CLOUDY    79  60  52 SE12      30.12S
LIMON CO       CLOUDY    64  59  83 SE9       30.20R
$$

...UNOFFICIAL OBSERVATIONS...

CITY           SKY/WX    TMP DP  RH WIND       PRES   REMARKS
COLBY KS       MOSUNNY   84  61  45 E17       30.08F
GOVE KS          N/A     86  32  14 MISG        N/A
LENORA KS        N/A     84  32  15 MISG        N/A
NORTON KS      SUNNY     84  50  30 E12G18    30.08F
ST FRANCIS KS  CLOUDY    84  50  30 SE15      30.07F
WAKEENEY KS      N/A     88  51  28 MISG        N/A
TRENTON NEB      N/A     84  32  15 E16         N/A
KIT CARSON CO    N/A     72  63  72 N12G20      N/A
YUMA CO          N/A     82  58  44 SE12G18     N/A
$$



USA.gov is the U.S. government's official web portal to all federal, state and local government web resources and services.